Home   Weather   Setúbal   Past weeks

Flag for Portugal Past Weather in Setúbal, Portugal — Yesterday and Last 2 Weeks

Now
54 °F

Clear.


Feels Like: 52 °F
Forecast: 54 / 66 °F
Wind: 7 mph from Northeast

Location: Lisbon Portela Airport

Current Time: Dec 6, 2016 at 3:08:54 am

Latest Report: Dec 6, 2016 at 2:30 am


Visibility: 10 mi

Pressure: 30.18 "Hg

Humidity: 88%

Dew Point: 50 °F

Location of SetúbalLocation

Past Weather in Setúbal — Graph

°F

Setúbal Temperature Yesterday

Maximum temperature yesterday: 66 °F (at 2:30 pm)
Minimum temperature yesterday: 55 °F (at 4:00 am)
Average temperature yesterday: 59 °F

High & Low Weather Summary for the Past Weeks

 TemperatureHumidityPressure
High66 °F (Dec 5, 2:30 pm)100% (Nov 22, 8:00 am)30.18 "Hg (Nov 22, 8:00 am)
Low45 °F (Nov 22, 7:30 am)51% (Nov 23, 1:30 pm)29.53 "Hg (Nov 25, 5:30 am)
Average54 °F87%29.82 "Hg
* Reported Nov 21 2:00 am — Dec 6 2:00 am, Setúbal, Weather by CustomWeather, © 2016

Note: Actual official high and low records may vary slightly from our data, if they occured in-between our weather recording intervals... More about our weather records

Advertising

Setúbal Weather History for the Previous 24 Hours

Scroll right to see more
 ConditionsComfort  
Time TempWeatherWind HumidityBarometerVisibility
2:00 am
Tue, Dec 6
55 °FClear.6 mph82%30.15 "Hg10 mi
1:30 am55 °FClear.7 mph82%30.15 "Hg10 mi
1:00 am57 °FClear.6 mph82%30.15 "Hg10 mi
12:30 am57 °FClear.7 mph82%30.15 "Hg10 mi
12:00 am59 °FPassing clouds.7 mph77%30.18 "HgN/A
11:30 pm
Mon, Dec 5
59 °FClear.8 mph77%30.18 "Hg10 mi
11:00 pm59 °FClear.7 mph77%30.18 "Hg10 mi
10:30 pm59 °FClear.6 mph77%30.15 "Hg10 mi
10:00 pm59 °FClear.6 mph77%30.15 "Hg10 mi
9:30 pm59 °FClear.6 mph77%30.15 "Hg10 mi
9:00 pm57 °FClear.9 mph82%30.15 "Hg10 mi
8:30 pm59 °FClear.6 mph77%30.12 "Hg10 mi
8:00 pm59 °FClear.6 mph82%30.12 "Hg10 mi
7:30 pm59 °FClear.6 mph82%30.12 "Hg10 mi
7:00 pm61 °FClear.7 mph77%30.12 "Hg10 mi
6:30 pm63 °FClear.6 mph73%30.09 "Hg10 mi
6:00 pm61 °FClear.6 mph77%30.09 "Hg10 mi
5:30 pm61 °FClear.5 mph77%30.07 "Hg10 mi
5:00 pm63 °FPassing clouds.3 mph77%30.07 "HgN/A
4:30 pm64 °FPassing clouds.7 mph73%30.04 "HgN/A
4:00 pm66 °FPassing clouds.8 mph68%30.04 "HgN/A
3:30 pm66 °FPassing clouds.8 mph68%30.04 "HgN/A
3:00 pm66 °FPassing clouds.9 mph68%30.01 "HgN/A
2:30 pm66 °FSunny.9 mph68%30.01 "Hg10 mi
2:00 pm64 °FPassing clouds.9 mph73%30.01 "HgN/A
1:30 pm64 °FPassing clouds.12 mph73%29.98 "HgN/A
1:00 pm63 °FPassing clouds.10 mph77%30.01 "HgN/A
12:30 pm61 °FPassing clouds.9 mph83%30.01 "HgN/A
12:00 pm61 °FSunny.12 mph77%30.01 "Hg10 mi
11:30 am61 °FPassing clouds.10 mph77%30.01 "HgN/A
11:00 am59 °FPassing clouds.12 mph82%30.01 "HgN/A
10:30 am59 °FPassing clouds.10 mph77%30.01 "HgN/A
10:00 am59 °FPassing clouds.10 mph77%30.01 "HgN/A
9:30 am57 °FPassing clouds.10 mph82%29.98 "HgN/A
9:00 am57 °FPassing clouds.12 mph82%29.98 "HgN/A
8:30 am55 °FSunny.8 mph88%29.98 "Hg10 mi
8:00 am55 °FSunny.12 mph88%29.95 "Hg10 mi
7:30 am55 °FClear.9 mph88%29.95 "Hg10 mi
7:00 am55 °FClear.9 mph88%29.92 "Hg10 mi
6:30 am55 °FClear.8 mph88%29.89 "Hg10 mi
6:00 am55 °FClear.10 mph88%29.86 "Hg10 mi
5:30 am55 °FPassing clouds.9 mph94%29.86 "HgN/A
5:00 am57 °FPartly cloudy.8 mph88%29.86 "HgN/A
4:30 am55 °FPassing clouds.8 mph94%29.83 "HgN/A
4:00 am55 °FPassing clouds.9 mph94%29.83 "HgN/A
3:30 am57 °FPassing clouds.10 mph88%29.83 "HgN/A
3:00 am57 °FPassing clouds.10 mph88%29.83 "HgN/A
Weather by CustomWeather, © 2016

See weather overviewHow to use our weather pages